Cherokee, IA

9:42 AM CDT on May 25, 2017 (GMT -0500)
Cherokee Municipal

Weather History for KCKP - March, 2013

Change the Weather History Date:

Wednesday, March 6, 2013

  Actual Average Record
Temperature  
Mean Temperature 23 °F -  
Max Temperature 28 °F 39 °F 73 °F (2017)
Min Temperature 18 °F 17 °F -12 °F (1962)
Degree Days  
Heating Degree Days 42    
Moisture  
Dew Point 18 °F    
Average Humidity 82    
Maximum Humidity 89    
Minimum Humidity 71    
Precipitation  
Precipitation 0.00 in - - ()
Sea Level Pressure  
Sea Level Pressure 30.36 in    
Wind  
Wind Speed 6 mph (NE)    
Max Wind Speed 10 mph    
Max Gust Speed 16 mph    
Visibility 10 miles    
Events      
Averages and records for this station are not official NWS values.
T = Trace of Precipitation, MM = Missing Value Source: NWS Daily Summary

Daily Weather History Graph

Daily Weather History Graph

Search for Another Location

Airport or City:

Trip Planner

Search our weather history database for the weather conditions in past years. The results will help you decide how hot, cold, wet, or windy it might be!

Date:

Astronomy

Mar. 06, 2013 Rise Set
Actual Time 6:49 AM CST 6:18 PM CST
Civil Twilight 6:21 AM CST 6:46 PM CST
Nautical Twilight 5:48 AM CST 7:19 PM CST
Astronomical Twilight 5:15 AM CST 7:52 PM CST
Moon 3:05 AM CST (3/6) 12:55 PM CST (3/6)
Length of Visible Light 12h 25m
Length of Day
11h 29m
Waning Crescent, 29% of the Moon is Illuminated
Mar 6
Waning Crescent
Mar 11
New
Mar 19
First Quarter
Mar 27
Full
Apr 2
Last Quarter

Hourly Weather History & Observations

Time (CST) Temp. Windchill Dew Point Humidity Pressure Visibility Wind Dir Wind Speed Gust Speed Precip Events Conditions
12:15 AM 22.8 °F 12.9 °F 17.6 °F 80% 30.35 in 10.0 mi NW 9.2 mph - N/A   Overcast
12:35 AM 22.8 °F 12.9 °F 18.0 °F 82% 30.36 in 10.0 mi NW 9.2 mph 16.1 mph N/A   Overcast
12:55 AM 22.8 °F 14.5 °F 18.1 °F 82% 30.37 in 10.0 mi NNW 6.9 mph - N/A   Overcast
1:15 AM 22.8 °F 12.2 °F 18.1 °F 82% 30.38 in 10.0 mi NNW 10.4 mph - N/A   Overcast
1:35 AM 22.1 °F 11.3 °F 17.4 °F 82% 30.38 in 10.0 mi NNW 10.4 mph 16.1 mph N/A   Overcast
1:55 AM 22.1 °F - 17.4 °F 82% 30.38 in 10.0 mi Calm Calm - N/A   Overcast
2:15 AM 22.1 °F 13.7 °F 17.6 °F 83% 30.38 in 10.0 mi NW 6.9 mph - N/A   Overcast
2:35 AM 21.9 °F 12.5 °F 17.4 °F 83% 30.38 in 10.0 mi NNW 8.1 mph - N/A   Overcast
2:55 AM 21.9 °F 14.5 °F 17.4 °F 83% 30.38 in 10.0 mi NW 5.8 mph - N/A   Overcast
3:15 AM 21.7 °F 15.5 °F 17.2 °F 83% 30.38 in 10.0 mi NW 4.6 mph - N/A   Overcast
3:35 AM 20.7 °F - 16.7 °F 85% 30.38 in 10.0 mi Calm Calm - N/A   Overcast
3:55 AM 20.3 °F 15.4 °F 16.3 °F 85% 30.38 in 10.0 mi NNW 3.5 mph - N/A   Overcast
4:15 AM 20.3 °F 10.6 °F 16.5 °F 85% 30.38 in 10.0 mi NW 8.1 mph - N/A   Overcast
4:35 AM 20.8 °F 11.2 °F 16.7 °F 84% 30.38 in 10.0 mi NW 8.1 mph - N/A   Mostly Cloudy
4:55 AM 20.3 °F 11.5 °F 16.3 °F 85% 30.39 in 10.0 mi NNW 6.9 mph - N/A   Scattered Clouds
5:15 AM 19.4 °F 11.5 °F 15.8 °F 86% 30.39 in 10.0 mi NNW 5.8 mph - N/A   Clear
5:35 AM 19.4 °F 12.8 °F 15.8 °F 86% 30.39 in 10.0 mi NW 4.6 mph - N/A   Clear
5:55 AM 19.0 °F - 15.8 °F 87% 30.39 in 10.0 mi Calm Calm - N/A   Clear
6:15 AM 18.3 °F - 15.1 °F 87% 30.39 in 10.0 mi Calm Calm - N/A   Clear
6:35 AM 18.0 °F 11.1 °F 14.7 °F 87% 30.40 in 10.0 mi NNE 4.6 mph - N/A   Scattered Clouds
6:55 AM 18.1 °F 12.9 °F 15.4 °F 89% 30.40 in 10.0 mi NW 3.5 mph - N/A   Mostly Cloudy
7:15 AM 18.5 °F 10.4 °F 15.4 °F 88% 30.41 in 10.0 mi NNW 5.8 mph - N/A   Overcast
7:35 AM 19.0 °F 12.3 °F 15.8 °F 87% 30.41 in 10.0 mi NNW 4.6 mph - N/A   Overcast
7:55 AM 19.4 °F 11.5 °F 16.0 °F 87% 30.41 in 10.0 mi North 5.8 mph - N/A   Overcast
8:15 AM 19.4 °F 9.5 °F 16.0 °F 87% 30.41 in 10.0 mi North 8.1 mph - N/A   Overcast
8:35 AM 19.6 °F 11.7 °F 16.0 °F 86% 30.42 in 10.0 mi NNE 5.8 mph - N/A   Overcast
8:55 AM 19.9 °F 13.4 °F 16.3 °F 86% 30.42 in 10.0 mi North 4.6 mph - N/A   Overcast
9:15 AM 20.3 °F 12.5 °F 16.5 °F 85% 30.42 in 10.0 mi NNE 5.8 mph - N/A   Overcast
9:35 AM 21.0 °F 13.4 °F 16.7 °F 83% 30.41 in 10.0 mi NNW 5.8 mph - N/A   Overcast
9:55 AM 21.2 °F 14.9 °F 16.7 °F 83% 30.42 in 10.0 mi North 4.6 mph - N/A   Overcast
10:15 AM 21.9 °F 15.7 °F 17.4 °F 83% 30.41 in 10.0 mi North 4.6 mph - N/A   Overcast
10:35 AM 22.5 °F 16.3 °F 17.4 °F 81% 30.41 in 10.0 mi NNE 4.6 mph - N/A   Overcast
10:55 AM 22.3 °F - 16.7 °F 79% 30.41 in 10.0 mi Calm Calm - N/A   Overcast
11:15 AM 23.4 °F - 17.4 °F 78% 30.41 in 10.0 mi Calm Calm - N/A   Overcast
11:35 AM 24.4 °F - 18.3 °F 78% 30.41 in 10.0 mi Calm Calm - N/A   Overcast
11:55 AM 25.0 °F - 18.1 °F 75% 30.40 in 10.0 mi Calm Calm - N/A   Overcast
12:15 PM 25.2 °F - 18.3 °F 75% 30.39 in 10.0 mi Calm Calm - N/A   Overcast
12:35 PM 27.3 °F 22.0 °F 19.0 °F 71% 30.39 in 10.0 mi SSE 4.6 mph - N/A   Mostly Cloudy
12:55 PM 27.9 °F 22.6 °F 19.6 °F 71% 30.38 in 10.0 mi South 4.6 mph - N/A   Overcast
1:15 PM 26.8 °F - 19.4 °F 74% 30.37 in 10.0 mi Calm Calm - N/A   Overcast
1:35 PM 27.3 °F 22.0 °F 19.6 °F 73% 30.36 in 10.0 mi ENE 4.6 mph - N/A   Overcast
1:55 PM 27.5 °F - 19.0 °F 71% 30.35 in 10.0 mi Calm Calm - N/A   Overcast
2:15 PM 27.0 °F 23.0 °F 19.4 °F 73% 30.35 in 10.0 mi SSE 3.5 mph - N/A   Overcast
2:35 PM 26.8 °F - 18.9 °F 72% 30.34 in 10.0 mi Calm Calm - N/A   Overcast
2:55 PM 27.3 °F 23.4 °F 19.2 °F 72% 30.34 in 10.0 mi ESE 3.5 mph - N/A   Overcast
3:15 PM 27.5 °F 21.1 °F 20.1 °F 74% 30.33 in 10.0 mi ENE 5.8 mph - N/A   Overcast
3:35 PM 27.5 °F 22.2 °F 20.3 °F 74% 30.33 in 10.0 mi ESE 4.6 mph - N/A   Overcast
3:55 PM 28.2 °F 22.0 °F 20.5 °F 73% 30.33 in 10.0 mi SE 5.8 mph - N/A   Overcast
4:15 PM 28.2 °F 22.0 °F 20.3 °F 72% 30.32 in 10.0 mi East 5.8 mph - N/A   Overcast
4:35 PM 28.4 °F 22.2 °F 20.5 °F 72% 30.32 in 10.0 mi East 5.8 mph - N/A   Mostly Cloudy
4:55 PM 28.2 °F 22.0 °F 20.3 °F 72% 30.31 in 10.0 mi East 5.8 mph - N/A   Scattered Clouds
5:15 PM 27.1 °F 18.9 °F 20.3 °F 75% 30.31 in 10.0 mi East 8.1 mph - N/A   Scattered Clouds
5:35 PM 26.6 °F 18.2 °F 20.3 °F 77% 30.30 in 10.0 mi East 8.1 mph - N/A   Scattered Clouds
5:55 PM 25.7 °F 17.1 °F 20.3 °F 80% 30.30 in 10.0 mi East 8.1 mph - N/A   Clear
6:15 PM 24.8 °F 16.1 °F 20.1 °F 82% 30.30 in 10.0 mi East 8.1 mph - N/A   Clear
6:35 PM 23.9 °F 15.8 °F 19.8 °F 84% 30.29 in 10.0 mi East 6.9 mph - N/A   Clear
6:55 PM 23.5 °F 13.7 °F 19.8 °F 85% 30.29 in 10.0 mi East 9.2 mph - N/A   Clear
7:15 PM 23.4 °F 14.3 °F 19.4 °F 85% 30.29 in 10.0 mi East 8.1 mph - N/A   Clear
7:35 PM 23.0 °F 13.9 °F 19.2 °F 85% 30.28 in 10.0 mi East 8.1 mph - N/A   Clear
7:55 PM 22.5 °F 13.2 °F 18.9 °F 86% 30.28 in 10.0 mi East 8.1 mph - N/A   Clear
8:35 PM 21.7 °F 13.2 °F 18.5 °F 87% 30.28 in 10.0 mi East 6.9 mph - N/A   Clear
8:55 PM 21.6 °F 15.3 °F 18.5 °F 88% 30.28 in 10.0 mi ESE 4.6 mph - N/A   Clear
9:15 PM 21.2 °F 14.9 °F 18.1 °F 88% 30.28 in 10.0 mi East 4.6 mph - N/A   Clear
9:35 PM 21.2 °F 16.4 °F 18.3 °F 89% 30.28 in 10.0 mi ESE 3.5 mph - N/A   Clear
9:55 PM 21.2 °F 14.9 °F 18.3 °F 89% 30.28 in 10.0 mi ESE 4.6 mph - N/A   Clear
10:15 PM 21.0 °F 13.4 °F 18.1 °F 89% 30.29 in 10.0 mi ESE 5.8 mph - N/A   Scattered Clouds
10:35 PM 20.8 °F - 18.1 °F 89% 30.28 in 10.0 mi Calm Calm - N/A   Mostly Cloudy
10:55 PM 21.0 °F 16.2 °F 18.3 °F 89% 30.30 in 10.0 mi East 3.5 mph - N/A   Mostly Cloudy
11:15 PM 21.0 °F 16.2 °F 18.1 °F 89% 30.29 in 10.0 mi East 3.5 mph - N/A   Overcast
11:35 PM 21.2 °F 13.6 °F 18.5 °F 89% 30.30 in 10.0 mi East 5.8 mph - N/A   Overcast
11:55 PM 21.6 °F 15.3 °F 18.9 °F 89% 30.31 in 10.0 mi SE 4.6 mph - N/A   Overcast